<?xml version='1.0' encoding='UTF-8'?>
<gpx xmlns="http://www.topografix.com/GPX/1/1" creator="www.balnam.be" version="1.1" xmlns:xsi="http://www.w3.org/2001/XMLSchema-instance" xsi:schemaLocation="http://www.topografix.com/GPX/1/1 http://www.topografix.com/GPX/1/1/gpx.xsd">
<trk>
<name>xnsls13</name>
<cmt>v</cmt>
<desc>Lesterny Chemin n°13 </desc>
<link href="https://chemins.be/lesterny/chemin/13"/><trkseg>
<trkpt lat="50.113535" lon="5.295965"><time>2026-05-04T17:58:44Z</time></trkpt>
<trkpt lat="50.114731" lon="5.294966"><time>2026-05-04T18:08:44Z</time></trkpt>
<trkpt lat="50.114999" lon="5.294669"><time>2026-05-04T18:18:44Z</time></trkpt>
<trkpt lat="50.115588" lon="5.294540"><time>2026-05-04T18:28:44Z</time></trkpt>
<trkpt lat="50.115764" lon="5.294823"><time>2026-05-04T18:38:44Z</time></trkpt>
<trkpt lat="50.116226" lon="5.294634"><time>2026-05-04T18:48:44Z</time></trkpt>
</trkseg>
</trk>
<trk>
<name>xnsls18</name>
<cmt>r</cmt>
<desc>Lesterny Chemin n°18 </desc>
<link href="https://chemins.be/lesterny/chemin/18"/><trkseg>
<trkpt lat="50.099420" lon="5.313553"><time>2026-05-04T17:58:44Z</time></trkpt>
<trkpt lat="50.098463" lon="5.313284"><time>2026-05-04T18:08:44Z</time></trkpt>
<trkpt lat="50.097011" lon="5.313370"><time>2026-05-04T18:18:44Z</time></trkpt>
</trkseg></trk>
<trk>
<name>xnsls18</name>
<cmt>v</cmt>
<desc>Lesterny Chemin n°18 </desc>
<link href="https://chemins.be/lesterny/chemin/18"/><trkseg>
<trkpt lat="50.097011" lon="5.313370"><time>2026-05-04T18:18:44Z</time></trkpt>
<trkpt lat="50.095118" lon="5.313370"><time>2026-05-04T18:28:44Z</time></trkpt>
</trkseg>
</trk>
<trk>
<name>xnsls2</name>
<cmt>s</cmt>
<desc>Lesterny Chemin n°2 </desc>
<link href="https://chemins.be/lesterny/chemin/2"/><trkseg>
<trkpt lat="50.106731" lon="5.268911"><time>2026-05-04T17:58:44Z</time></trkpt>
<trkpt lat="50.108571" lon="5.268253"><time>2026-05-04T18:08:44Z</time></trkpt>
<trkpt lat="50.110124" lon="5.268531"><time>2026-05-04T18:18:44Z</time></trkpt>
</trkseg></trk>
<trk>
<name>xnsls2</name>
<cmt>r</cmt>
<desc>Lesterny Chemin n°2 </desc>
<link href="https://chemins.be/lesterny/chemin/2"/><trkseg>
<trkpt lat="50.110124" lon="5.268531"><time>2026-05-04T18:18:44Z</time></trkpt>
<trkpt lat="50.111412" lon="5.270699"><time>2026-05-04T18:28:44Z</time></trkpt>
</trkseg></trk>
<trk>
<name>xnsls2</name>
<cmt>s</cmt>
<desc>Lesterny Chemin n°2 </desc>
<link href="https://chemins.be/lesterny/chemin/2"/><trkseg>
<trkpt lat="50.111412" lon="5.270699"><time>2026-05-04T18:28:44Z</time></trkpt>
<trkpt lat="50.112262" lon="5.271204"><time>2026-05-04T18:38:44Z</time></trkpt>
</trkseg></trk>
<trk>
<name>xnsls2</name>
<cmt>v</cmt>
<desc>Lesterny Chemin n°2 </desc>
<link href="https://chemins.be/lesterny/chemin/2"/><trkseg>
<trkpt lat="50.112262" lon="5.271204"><time>2026-05-04T18:38:44Z</time></trkpt>
<trkpt lat="50.113717" lon="5.271220"><time>2026-05-04T18:48:44Z</time></trkpt>
<trkpt lat="50.113901" lon="5.270993"><time>2026-05-04T18:58:44Z</time></trkpt>
<trkpt lat="50.115124" lon="5.270720"><time>2026-05-04T19:08:44Z</time></trkpt>
</trkseg></trk>
<trk>
<name>xnsls2</name>
<cmt>s</cmt>
<desc>Lesterny Chemin n°2 </desc>
<link href="https://chemins.be/lesterny/chemin/2"/><trkseg>
<trkpt lat="50.115124" lon="5.270720"><time>2026-05-04T19:08:44Z</time></trkpt>
<trkpt lat="50.115440" lon="5.270649"><time>2026-05-04T19:18:44Z</time></trkpt>
<trkpt lat="50.116987" lon="5.270581"><time>2026-05-04T19:28:44Z</time></trkpt>
<trkpt lat="50.118169" lon="5.271218"><time>2026-05-04T19:38:44Z</time></trkpt>
<trkpt lat="50.119265" lon="5.271295"><time>2026-05-04T19:48:44Z</time></trkpt>
<trkpt lat="50.120193" lon="5.271131"><time>2026-05-04T19:58:44Z</time></trkpt>
</trkseg>
</trk>
<trk>
<name>xnsls23</name>
<cmt>q</cmt>
<desc>Lesterny Chemin n°23 </desc>
<link href="https://chemins.be/lesterny/chemin/23"/><trkseg>
<trkpt lat="50.117329" lon="5.281382"><time>2026-05-04T17:58:44Z</time></trkpt>
<trkpt lat="50.115040" lon="5.282298"><time>2026-05-04T18:08:44Z</time></trkpt>
<trkpt lat="50.113903" lon="5.283356"><time>2026-05-04T18:18:44Z</time></trkpt>
</trkseg>
</trk>
<trk>
<name>xnsls24</name>
<cmt>d</cmt>
<desc>Lesterny Sentier n°24 </desc>
<link href="https://chemins.be/lesterny/sentier/24"/><trkseg>
<trkpt lat="50.110815" lon="5.294140"><time>2026-05-04T17:58:44Z</time></trkpt>
<trkpt lat="50.111235" lon="5.293873"><time>2026-05-04T18:08:44Z</time></trkpt>
<trkpt lat="50.111894" lon="5.293597"><time>2026-05-04T18:18:44Z</time></trkpt>
<trkpt lat="50.112148" lon="5.293209"><time>2026-05-04T18:28:44Z</time></trkpt>
<trkpt lat="50.112317" lon="5.292873"><time>2026-05-04T18:38:44Z</time></trkpt>
<trkpt lat="50.113112" lon="5.292380"><time>2026-05-04T18:48:44Z</time></trkpt>
<trkpt lat="50.113634" lon="5.291802"><time>2026-05-04T18:58:44Z</time></trkpt>
</trkseg></trk>
<trk>
<name>xnsls24</name>
<cmt>v</cmt>
<desc>Lesterny Sentier n°24 </desc>
<link href="https://chemins.be/lesterny/sentier/24"/><trkseg>
<trkpt lat="50.113634" lon="5.291802"><time>2026-05-04T18:58:44Z</time></trkpt>
<trkpt lat="50.114172" lon="5.291249"><time>2026-05-04T19:08:44Z</time></trkpt>
<trkpt lat="50.114558" lon="5.291022"><time>2026-05-04T19:18:44Z</time></trkpt>
<trkpt lat="50.115245" lon="5.290590"><time>2026-05-04T19:28:44Z</time></trkpt>
</trkseg></trk>
<trk>
<name>xnsls24</name>
<cmt>d</cmt>
<desc>Lesterny Sentier n°24 </desc>
<link href="https://chemins.be/lesterny/sentier/24"/><trkseg>
<trkpt lat="50.115245" lon="5.290590"><time>2026-05-04T19:28:44Z</time></trkpt>
<trkpt lat="50.116427" lon="5.289682"><time>2026-05-04T19:38:44Z</time></trkpt>
<trkpt lat="50.116770" lon="5.289486"><time>2026-05-04T19:48:44Z</time></trkpt>
</trkseg></trk>
<trk>
<name>xnsls24</name>
<cmt>q</cmt>
<desc>Lesterny Sentier n°24 </desc>
<link href="https://chemins.be/lesterny/sentier/24"/><trkseg>
<trkpt lat="50.116770" lon="5.289486"><time>2026-05-04T19:48:44Z</time></trkpt>
<trkpt lat="50.118246" lon="5.288643"><time>2026-05-04T19:58:44Z</time></trkpt>
</trkseg>
</trk>
<trk>
<name>xnsls33</name>
<cmt>v</cmt>
<desc>Lesterny Sentier n°33 Chemin de Lesterny</desc>
<link href="https://chemins.be/lesterny/sentier/33"/><trkseg>
<trkpt lat="50.113351" lon="5.283279"><time>2026-05-04T17:58:44Z</time></trkpt>
<trkpt lat="50.113592" lon="5.283549"><time>2026-05-04T18:08:44Z</time></trkpt>
<trkpt lat="50.113530" lon="5.283839"><time>2026-05-04T18:18:44Z</time></trkpt>
<trkpt lat="50.112958" lon="5.284864"><time>2026-05-04T18:28:44Z</time></trkpt>
<trkpt lat="50.111976" lon="5.287208"><time>2026-05-04T18:38:44Z</time></trkpt>
<trkpt lat="50.111433" lon="5.288043"><time>2026-05-04T18:48:44Z</time></trkpt>
<trkpt lat="50.111180" lon="5.288728"><time>2026-05-04T18:58:44Z</time></trkpt>
<trkpt lat="50.110993" lon="5.291307"><time>2026-05-04T19:08:44Z</time></trkpt>
</trkseg></trk>
<trk>
<name>xnsls33</name>
<cmt>d</cmt>
<desc>Lesterny Sentier n°33 Chemin de Lesterny</desc>
<link href="https://chemins.be/lesterny/sentier/33"/><trkseg>
<trkpt lat="50.110993" lon="5.291307"><time>2026-05-04T19:08:44Z</time></trkpt>
<trkpt lat="50.110317" lon="5.293004"><time>2026-05-04T19:18:44Z</time></trkpt>
<trkpt lat="50.110348" lon="5.293804"><time>2026-05-04T19:28:44Z</time></trkpt>
</trkseg></trk>
<trk>
<name>xnsls33</name>
<cmt>v</cmt>
<desc>Lesterny Sentier n°33 Chemin de Lesterny</desc>
<link href="https://chemins.be/lesterny/sentier/33"/><trkseg>
<trkpt lat="50.110348" lon="5.293804"><time>2026-05-04T19:28:44Z</time></trkpt>
<trkpt lat="50.109827" lon="5.294137"><time>2026-05-04T19:38:44Z</time></trkpt>
<trkpt lat="50.108029" lon="5.294851"><time>2026-05-04T19:48:44Z</time></trkpt>
<trkpt lat="50.107334" lon="5.294822"><time>2026-05-04T19:58:44Z</time></trkpt>
<trkpt lat="50.107034" lon="5.295035"><time>2026-05-04T20:08:44Z</time></trkpt>
</trkseg></trk>
<trk>
<name>xnsls33</name>
<cmt>d</cmt>
<desc>Lesterny Sentier n°33 Chemin de Lesterny</desc>
<link href="https://chemins.be/lesterny/sentier/33"/><trkseg>
<trkpt lat="50.107034" lon="5.295035"><time>2026-05-04T20:08:44Z</time></trkpt>
<trkpt lat="50.106776" lon="5.295239"><time>2026-05-04T20:18:44Z</time></trkpt>
<trkpt lat="50.106466" lon="5.295272"><time>2026-05-04T20:28:44Z</time></trkpt>
<trkpt lat="50.104214" lon="5.294021"><time>2026-05-04T20:38:44Z</time></trkpt>
<trkpt lat="50.103548" lon="5.294093"><time>2026-05-04T20:48:44Z</time></trkpt>
<trkpt lat="50.103279" lon="5.294304"><time>2026-05-04T20:58:44Z</time></trkpt>
<trkpt lat="50.102520" lon="5.294782"><time>2026-05-04T21:08:44Z</time></trkpt>
</trkseg></trk>
<trk>
<name>xnsls33</name>
<cmt>s</cmt>
<desc>Lesterny Sentier n°33 Chemin de Lesterny</desc>
<link href="https://chemins.be/lesterny/sentier/33"/><trkseg>
<trkpt lat="50.102520" lon="5.294782"><time>2026-05-04T21:08:44Z</time></trkpt>
<trkpt lat="50.102274" lon="5.294896"><time>2026-05-04T21:18:44Z</time></trkpt>
</trkseg></trk>
<trk>
<name>xnsls33</name>
<cmt>d</cmt>
<desc>Lesterny Sentier n°33 Chemin de Lesterny</desc>
<link href="https://chemins.be/lesterny/sentier/33"/><trkseg>
<trkpt lat="50.102274" lon="5.294896"><time>2026-05-04T21:18:44Z</time></trkpt>
<trkpt lat="50.101720" lon="5.295390"><time>2026-05-04T21:28:44Z</time></trkpt>
<trkpt lat="50.098732" lon="5.296386"><time>2026-05-04T21:38:44Z</time></trkpt>
<trkpt lat="50.098274" lon="5.295956"><time>2026-05-04T21:48:44Z</time></trkpt>
</trkseg></trk>
<trk>
<name>xnsls33</name>
<cmt>v</cmt>
<desc>Lesterny Sentier n°33 Chemin de Lesterny</desc>
<link href="https://chemins.be/lesterny/sentier/33"/><trkseg>
<trkpt lat="50.098274" lon="5.295956"><time>2026-05-04T21:48:44Z</time></trkpt>
<trkpt lat="50.097741" lon="5.295936"><time>2026-05-04T21:58:44Z</time></trkpt>
<trkpt lat="50.095466" lon="5.297282"><time>2026-05-04T22:08:44Z</time></trkpt>
<trkpt lat="50.093704" lon="5.299235"><time>2026-05-04T22:18:44Z</time></trkpt>
<trkpt lat="50.091936" lon="5.299374"><time>2026-05-04T22:28:44Z</time></trkpt>
</trkseg>
</trk>
<trk>
<name>xnsls34</name>
<cmt>v</cmt>
<desc>Lesterny Chemin n°34 </desc>
<link href="https://chemins.be/lesterny/chemin/34"/><trkseg>
<trkpt lat="50.097022" lon="5.291049"><time>2026-05-04T17:58:44Z</time></trkpt>
<trkpt lat="50.097683" lon="5.290824"><time>2026-05-04T18:08:44Z</time></trkpt>
<trkpt lat="50.099568" lon="5.292787"><time>2026-05-04T18:18:44Z</time></trkpt>
<trkpt lat="50.100952" lon="5.293753"><time>2026-05-04T18:28:44Z</time></trkpt>
<trkpt lat="50.102325" lon="5.294970"><time>2026-05-04T18:38:44Z</time></trkpt>
<trkpt lat="50.102367" lon="5.295287"><time>2026-05-04T18:48:44Z</time></trkpt>
<trkpt lat="50.103953" lon="5.296971"><time>2026-05-04T18:58:44Z</time></trkpt>
</trkseg></trk>
<trk>
<name>xnsls34</name>
<cmt>q</cmt>
<desc>Lesterny Chemin n°34 </desc>
<link href="https://chemins.be/lesterny/chemin/34"/><trkseg>
<trkpt lat="50.103953" lon="5.296971"><time>2026-05-04T18:58:44Z</time></trkpt>
<trkpt lat="50.105159" lon="5.299083"><time>2026-05-04T19:08:44Z</time></trkpt>
<trkpt lat="50.106304" lon="5.299924"><time>2026-05-04T19:18:44Z</time></trkpt>
<trkpt lat="50.106645" lon="5.300564"><time>2026-05-04T19:28:44Z</time></trkpt>
</trkseg></trk>
<trk>
<name>xnsls34</name>
<cmt>v</cmt>
<desc>Lesterny Chemin n°34 </desc>
<link href="https://chemins.be/lesterny/chemin/34"/><trkseg>
<trkpt lat="50.106645" lon="5.300564"><time>2026-05-04T19:28:44Z</time></trkpt>
<trkpt lat="50.107174" lon="5.302019"><time>2026-05-04T19:38:44Z</time></trkpt>
<trkpt lat="50.107419" lon="5.302877"><time>2026-05-04T19:48:44Z</time></trkpt>
<trkpt lat="50.107857" lon="5.303855"><time>2026-05-04T19:58:44Z</time></trkpt>
<trkpt lat="50.107628" lon="5.304667"><time>2026-05-04T20:08:44Z</time></trkpt>
</trkseg>
</trk>
<trk>
<name>xnsls35</name>
<cmt>r</cmt>
<desc>Lesterny Sentier n°35 Rue du Point d'Arrêt / Rue de Hérimont</desc>
<link href="https://chemins.be/lesterny/sentier/35"/><trkseg>
<trkpt lat="50.112788" lon="5.283056"><time>2026-05-04T17:58:44Z</time></trkpt>
<trkpt lat="50.111481" lon="5.283356"><time>2026-05-04T18:08:44Z</time></trkpt>
<trkpt lat="50.110238" lon="5.284601"><time>2026-05-04T18:18:44Z</time></trkpt>
<trkpt lat="50.110059" lon="5.283821"><time>2026-05-04T18:28:44Z</time></trkpt>
</trkseg></trk>
<trk>
<name>xnsls35</name>
<cmt>v</cmt>
<desc>Lesterny Sentier n°35 Rue du Point d'Arrêt / Rue de Hérimont</desc>
<link href="https://chemins.be/lesterny/sentier/35"/><trkseg>
<trkpt lat="50.110059" lon="5.283821"><time>2026-05-04T18:28:44Z</time></trkpt>
<trkpt lat="50.109853" lon="5.283293"><time>2026-05-04T18:38:44Z</time></trkpt>
<trkpt lat="50.109733" lon="5.283323"><time>2026-05-04T18:48:44Z</time></trkpt>
<trkpt lat="50.109413" lon="5.284383"><time>2026-05-04T18:58:44Z</time></trkpt>
<trkpt lat="50.108819" lon="5.285982"><time>2026-05-04T19:08:44Z</time></trkpt>
<trkpt lat="50.107746" lon="5.286540"><time>2026-05-04T19:18:44Z</time></trkpt>
<trkpt lat="50.106425" lon="5.286196"><time>2026-05-04T19:28:44Z</time></trkpt>
<trkpt lat="50.105104" lon="5.285553"><time>2026-05-04T19:38:44Z</time></trkpt>
<trkpt lat="50.104047" lon="5.283181"><time>2026-05-04T19:48:44Z</time></trkpt>
</trkseg></trk>
<trk>
<name>xnsls35</name>
<cmt>d</cmt>
<desc>Lesterny Sentier n°35 Rue du Point d'Arrêt / Rue de Hérimont</desc>
<link href="https://chemins.be/lesterny/sentier/35"/><trkseg>
<trkpt lat="50.104047" lon="5.283181"><time>2026-05-04T19:48:44Z</time></trkpt>
<trkpt lat="50.103859" lon="5.282782"><time>2026-05-04T19:58:44Z</time></trkpt>
</trkseg></trk>
<trk>
<name>xnsls35</name>
<cmt>q</cmt>
<desc>Lesterny Sentier n°35 Rue du Point d'Arrêt / Rue de Hérimont</desc>
<link href="https://chemins.be/lesterny/sentier/35"/><trkseg>
<trkpt lat="50.103859" lon="5.282782"><time>2026-05-04T19:58:44Z</time></trkpt>
<trkpt lat="50.102689" lon="5.282342"><time>2026-05-04T20:08:44Z</time></trkpt>
</trkseg>
</trk>
<trk>
<name>xnsls36</name>
<cmt>r</cmt>
<desc>Lesterny Sentier n°36 </desc>
<link href="https://chemins.be/lesterny/sentier/36"/><trkseg>
<trkpt lat="50.113892" lon="5.283461"><time>2026-05-04T17:58:44Z</time></trkpt>
<trkpt lat="50.114504" lon="5.284086"><time>2026-05-04T18:08:44Z</time></trkpt>
</trkseg>
</trk>
<trk>
<name>xnsls37</name>
<cmt>q</cmt>
<desc>Lesterny Sentier n°37 </desc>
<link href="https://chemins.be/lesterny/sentier/37"/><trkseg>
<trkpt lat="50.112036" lon="5.283298"><time>2026-05-04T17:58:44Z</time></trkpt>
<trkpt lat="50.111921" lon="5.284757"><time>2026-05-04T18:08:44Z</time></trkpt>
<trkpt lat="50.111288" lon="5.286680"><time>2026-05-04T18:18:44Z</time></trkpt>
<trkpt lat="50.111172" lon="5.288714"><time>2026-05-04T18:28:44Z</time></trkpt>
</trkseg>
</trk>
<trk>
<name>xnsls38</name>
<cmt>q</cmt>
<desc>Lesterny Sentier n°38 </desc>
<link href="https://chemins.be/lesterny/sentier/38"/><trkseg>
<trkpt lat="50.115809" lon="5.280935"><time>2026-05-04T17:58:44Z</time></trkpt>
<trkpt lat="50.117182" lon="5.280574"><time>2026-05-04T18:08:44Z</time></trkpt>
<trkpt lat="50.117402" lon="5.281032"><time>2026-05-04T18:18:44Z</time></trkpt>
<trkpt lat="50.118205" lon="5.281082"><time>2026-05-04T18:28:44Z</time></trkpt>
</trkseg>
</trk>
<trk>
<name>xnsls4</name>
<cmt>v</cmt>
<desc>Lesterny Chemin n°4 </desc>
<link href="https://chemins.be/lesterny/chemin/4"/><trkseg>
<trkpt lat="50.116715" lon="5.294471"><time>2026-05-04T17:58:44Z</time></trkpt>
<trkpt lat="50.116268" lon="5.294568"><time>2026-05-04T18:08:44Z</time></trkpt>
<trkpt lat="50.111156" lon="5.295866"><time>2026-05-04T18:18:44Z</time></trkpt>
<trkpt lat="50.111163" lon="5.296145"><time>2026-05-04T18:28:44Z</time></trkpt>
<trkpt lat="50.110228" lon="5.296875"><time>2026-05-04T18:38:44Z</time></trkpt>
<trkpt lat="50.110281" lon="5.297235"><time>2026-05-04T18:48:44Z</time></trkpt>
<trkpt lat="50.109706" lon="5.297567"><time>2026-05-04T18:58:44Z</time></trkpt>
<trkpt lat="50.108809" lon="5.298396"><time>2026-05-04T19:08:44Z</time></trkpt>
<trkpt lat="50.107290" lon="5.299374"><time>2026-05-04T19:18:44Z</time></trkpt>
<trkpt lat="50.106805" lon="5.299306"><time>2026-05-04T19:28:44Z</time></trkpt>
<trkpt lat="50.106734" lon="5.300516"><time>2026-05-04T19:38:44Z</time></trkpt>
<trkpt lat="50.105781" lon="5.301143"><time>2026-05-04T19:48:44Z</time></trkpt>
<trkpt lat="50.104628" lon="5.300887"><time>2026-05-04T19:58:44Z</time></trkpt>
<trkpt lat="50.103138" lon="5.302177"><time>2026-05-04T20:08:44Z</time></trkpt>
<trkpt lat="50.100296" lon="5.304798"><time>2026-05-04T20:18:44Z</time></trkpt>
<trkpt lat="50.098171" lon="5.308231"><time>2026-05-04T20:28:44Z</time></trkpt>
<trkpt lat="50.096984" lon="5.313317"><time>2026-05-04T20:38:44Z</time></trkpt>
</trkseg>
</trk>
<trk>
<name>xnsls41</name>
<cmt>v</cmt>
<desc>Lesterny Sentier n°41 </desc>
<link href="https://chemins.be/lesterny/sentier/41"/><trkseg>
<trkpt lat="50.102741" lon="5.302550"><time>2026-05-04T17:58:44Z</time></trkpt>
<trkpt lat="50.100188" lon="5.302185"><time>2026-05-04T18:08:44Z</time></trkpt>
<trkpt lat="50.099169" lon="5.302271"><time>2026-05-04T18:18:44Z</time></trkpt>
<trkpt lat="50.098632" lon="5.302024"><time>2026-05-04T18:28:44Z</time></trkpt>
</trkseg>
</trk>
<trk>
<name>xnsls7</name>
<cmt>v</cmt>
<desc>Lesterny Chemin n°7 </desc>
<link href="https://chemins.be/lesterny/chemin/7"/><trkseg>
<trkpt lat="50.108729" lon="5.276466"><time>2026-05-04T17:58:44Z</time></trkpt>
<trkpt lat="50.108647" lon="5.276552"><time>2026-05-04T18:08:44Z</time></trkpt>
<trkpt lat="50.107917" lon="5.275387"><time>2026-05-04T18:18:44Z</time></trkpt>
<trkpt lat="50.106407" lon="5.274497"><time>2026-05-04T18:28:44Z</time></trkpt>
<trkpt lat="50.105784" lon="5.273671"><time>2026-05-04T18:38:44Z</time></trkpt>
<trkpt lat="50.105261" lon="5.273301"><time>2026-05-04T18:48:44Z</time></trkpt>
</trkseg>
</trk>
<trk>
<name>xnsls8</name>
<cmt>r</cmt>
<desc>Lesterny Chemin n°8 Rue de Wavreille</desc>
<link href="https://chemins.be/lesterny/chemin/8"/><trkseg>
<trkpt lat="50.111489" lon="5.278083"><time>2026-05-04T17:58:44Z</time></trkpt>
<trkpt lat="50.111392" lon="5.277717"><time>2026-05-04T18:08:44Z</time></trkpt>
<trkpt lat="50.111608" lon="5.274324"><time>2026-05-04T18:18:44Z</time></trkpt>
<trkpt lat="50.111582" lon="5.273023"><time>2026-05-04T18:28:44Z</time></trkpt>
</trkseg></trk>
<trk>
<name>xnsls8</name>
<cmt>s</cmt>
<desc>Lesterny Chemin n°8 Rue de Wavreille</desc>
<link href="https://chemins.be/lesterny/chemin/8"/><trkseg>
<trkpt lat="50.111582" lon="5.273023"><time>2026-05-04T18:28:44Z</time></trkpt>
<trkpt lat="50.112618" lon="5.273924"><time>2026-05-04T18:38:44Z</time></trkpt>
<trkpt lat="50.113891" lon="5.271039"><time>2026-05-04T18:48:44Z</time></trkpt>
</trkseg></trk>
<trk>
<name>xnsls8</name>
<cmt>v</cmt>
<desc>Lesterny Chemin n°8 Rue de Wavreille</desc>
<link href="https://chemins.be/lesterny/chemin/8"/><trkseg>
<trkpt lat="50.113891" lon="5.271039"><time>2026-05-04T18:48:44Z</time></trkpt>
<trkpt lat="50.113991" lon="5.270901"><time>2026-05-04T18:58:44Z</time></trkpt>
<trkpt lat="50.114687" lon="5.269237"><time>2026-05-04T19:08:44Z</time></trkpt>
</trkseg>
</trk>
<trk>
<name>xnsls9</name>
<cmt>r</cmt>
<desc>Lesterny Chemin n°9 Rue de Hérimont / Rue Trou-Moray</desc>
<link href="https://chemins.be/lesterny/chemin/9"/><trkseg>
<trkpt lat="50.111560" lon="5.280433"><time>2026-05-04T17:58:44Z</time></trkpt>
<trkpt lat="50.111284" lon="5.280660"><time>2026-05-04T18:08:44Z</time></trkpt>
<trkpt lat="50.111003" lon="5.281555"><time>2026-05-04T18:18:44Z</time></trkpt>
</trkseg></trk>
<trk>
<name>xnsls9</name>
<cmt>v</cmt>
<desc>Lesterny Chemin n°9 Rue de Hérimont / Rue Trou-Moray</desc>
<link href="https://chemins.be/lesterny/chemin/9"/><trkseg>
<trkpt lat="50.111003" lon="5.281555"><time>2026-05-04T18:18:44Z</time></trkpt>
<trkpt lat="50.110079" lon="5.282404"><time>2026-05-04T18:28:44Z</time></trkpt>
</trkseg></trk>
<trk>
<name>xnsls9</name>
<cmt>r</cmt>
<desc>Lesterny Chemin n°9 Rue de Hérimont / Rue Trou-Moray</desc>
<link href="https://chemins.be/lesterny/chemin/9"/><trkseg>
<trkpt lat="50.110079" lon="5.282404"><time>2026-05-04T18:28:44Z</time></trkpt>
<trkpt lat="50.110069" lon="5.283592"><time>2026-05-04T18:38:44Z</time></trkpt>
<trkpt lat="50.110224" lon="5.284476"><time>2026-05-04T18:48:44Z</time></trkpt>
<trkpt lat="50.109919" lon="5.285477"><time>2026-05-04T18:58:44Z</time></trkpt>
<trkpt lat="50.109625" lon="5.287401"><time>2026-05-04T19:08:44Z</time></trkpt>
<trkpt lat="50.109631" lon="5.288967"><time>2026-05-04T19:18:44Z</time></trkpt>
<trkpt lat="50.109690" lon="5.290632"><time>2026-05-04T19:28:44Z</time></trkpt>
</trkseg></trk>
<trk>
<name>xnsls9</name>
<cmt>v</cmt>
<desc>Lesterny Chemin n°9 Rue de Hérimont / Rue Trou-Moray</desc>
<link href="https://chemins.be/lesterny/chemin/9"/><trkseg>
<trkpt lat="50.109690" lon="5.290632"><time>2026-05-04T19:28:44Z</time></trkpt>
<trkpt lat="50.109237" lon="5.291028"><time>2026-05-04T19:38:44Z</time></trkpt>
<trkpt lat="50.109154" lon="5.291320"><time>2026-05-04T19:48:44Z</time></trkpt>
<trkpt lat="50.109677" lon="5.292267"><time>2026-05-04T19:58:44Z</time></trkpt>
<trkpt lat="50.109648" lon="5.293519"><time>2026-05-04T20:08:44Z</time></trkpt>
<trkpt lat="50.109854" lon="5.293507"><time>2026-05-04T20:18:44Z</time></trkpt>
<trkpt lat="50.109954" lon="5.293634"><time>2026-05-04T20:28:44Z</time></trkpt>
<trkpt lat="50.109819" lon="5.294107"><time>2026-05-04T20:38:44Z</time></trkpt>
<trkpt lat="50.110205" lon="5.293928"><time>2026-05-04T20:48:44Z</time></trkpt>
<trkpt lat="50.110691" lon="5.293992"><time>2026-05-04T20:58:44Z</time></trkpt>
</trkseg>
</trk>
<trk>
<name>xnslsi1</name>
<cmt>v</cmt>
<desc>Lesterny Chemin n°i1 </desc>
<link href="https://chemins.be/lesterny/chemin/i1"/><trkseg>
<trkpt lat="50.111642" lon="5.272283"><time>2026-05-04T17:58:44Z</time></trkpt>
<trkpt lat="50.112253" lon="5.271232"><time>2026-05-04T18:08:44Z</time></trkpt>
</trkseg>
</trk>
<trk>
<name>xnslsi10</name>
<cmt>v</cmt>
<desc>Lesterny Sentier n°i10 </desc>
<link href="https://chemins.be/lesterny/sentier/i10"/><trkseg>
<trkpt lat="50.115388" lon="5.290534"><time>2026-05-04T17:58:44Z</time></trkpt>
<trkpt lat="50.117286" lon="5.289933"><time>2026-05-04T18:08:44Z</time></trkpt>
<trkpt lat="50.118153" lon="5.289482"><time>2026-05-04T18:18:44Z</time></trkpt>
<trkpt lat="50.118172" lon="5.289296"><time>2026-05-04T18:28:44Z</time></trkpt>
<trkpt lat="50.118250" lon="5.288656"><time>2026-05-04T18:38:44Z</time></trkpt>
<trkpt lat="50.118311" lon="5.288131"><time>2026-05-04T18:48:44Z</time></trkpt>
<trkpt lat="50.118298" lon="5.287026"><time>2026-05-04T18:58:44Z</time></trkpt>
</trkseg>
</trk>
<trk>
<name>xnslsi11</name>
<cmt>v</cmt>
<desc>Lesterny Chemin n°i11 </desc>
<link href="https://chemins.be/lesterny/chemin/i11"/><trkseg>
<trkpt lat="50.107382" lon="5.294797"><time>2026-05-04T17:58:44Z</time></trkpt>
<trkpt lat="50.107009" lon="5.294379"><time>2026-05-04T18:08:44Z</time></trkpt>
<trkpt lat="50.106715" lon="5.293753"><time>2026-05-04T18:18:44Z</time></trkpt>
<trkpt lat="50.106443" lon="5.293015"><time>2026-05-04T18:28:44Z</time></trkpt>
<trkpt lat="50.106046" lon="5.293106"><time>2026-05-04T18:38:44Z</time></trkpt>
<trkpt lat="50.105638" lon="5.292385"><time>2026-05-04T18:48:44Z</time></trkpt>
<trkpt lat="50.103098" lon="5.290812"><time>2026-05-04T18:58:44Z</time></trkpt>
<trkpt lat="50.102020" lon="5.290623"><time>2026-05-04T19:08:44Z</time></trkpt>
<trkpt lat="50.101536" lon="5.290418"><time>2026-05-04T19:18:44Z</time></trkpt>
</trkseg>
</trk>
<trk>
<name>xnslsi12</name>
<cmt>v</cmt>
<desc>Lesterny Chemin n°i12 </desc>
<link href="https://chemins.be/lesterny/chemin/i12"/><trkseg>
<trkpt lat="50.104009" lon="5.296971"><time>2026-05-04T17:58:44Z</time></trkpt>
<trkpt lat="50.105348" lon="5.297987"><time>2026-05-04T18:08:44Z</time></trkpt>
<trkpt lat="50.105697" lon="5.297901"><time>2026-05-04T18:18:44Z</time></trkpt>
<trkpt lat="50.106316" lon="5.298309"><time>2026-05-04T18:28:44Z</time></trkpt>
<trkpt lat="50.106490" lon="5.299203"><time>2026-05-04T18:38:44Z</time></trkpt>
<trkpt lat="50.106807" lon="5.299367"><time>2026-05-04T18:48:44Z</time></trkpt>
</trkseg>
</trk>
<trk>
<name>xnslsi13</name>
<cmt>q</cmt>
<desc>Lesterny Chemin n°i13 </desc>
<link href="https://chemins.be/lesterny/chemin/i13"/><trkseg>
<trkpt lat="50.109606" lon="5.288748"><time>2026-05-04T17:58:44Z</time></trkpt>
<trkpt lat="50.109390" lon="5.289085"><time>2026-05-04T18:08:44Z</time></trkpt>
<trkpt lat="50.107185" lon="5.290491"><time>2026-05-04T18:18:44Z</time></trkpt>
<trkpt lat="50.107001" lon="5.290311"><time>2026-05-04T18:28:44Z</time></trkpt>
</trkseg>
</trk>
<trk>
<name>xnslsi14</name>
<cmt>v</cmt>
<desc>Lesterny Chemin n°i14 </desc>
<link href="https://chemins.be/lesterny/chemin/i14"/><trkseg>
<trkpt lat="50.113630" lon="5.296007"><time>2026-05-04T17:58:44Z</time></trkpt>
<trkpt lat="50.113043" lon="5.296275"><time>2026-05-04T18:08:44Z</time></trkpt>
<trkpt lat="50.112532" lon="5.297174"><time>2026-05-04T18:18:44Z</time></trkpt>
<trkpt lat="50.112358" lon="5.298709"><time>2026-05-04T18:28:44Z</time></trkpt>
<trkpt lat="50.111612" lon="5.298736"><time>2026-05-04T18:38:44Z</time></trkpt>
<trkpt lat="50.110584" lon="5.299052"><time>2026-05-04T18:48:44Z</time></trkpt>
<trkpt lat="50.108848" lon="5.298408"><time>2026-05-04T18:58:44Z</time></trkpt>
</trkseg>
</trk>
<trk>
<name>xnslsi15</name>
<cmt>d</cmt>
<desc>Lesterny Chemin n°i15 </desc>
<link href="https://chemins.be/lesterny/chemin/i15"/><trkseg>
<trkpt lat="50.103875" lon="5.282770"><time>2026-05-04T17:58:44Z</time></trkpt>
<trkpt lat="50.103321" lon="5.281614"><time>2026-05-04T18:08:44Z</time></trkpt>
<trkpt lat="50.103144" lon="5.281707"><time>2026-05-04T18:18:44Z</time></trkpt>
</trkseg></trk>
<trk>
<name>xnslsi15</name>
<cmt>q</cmt>
<desc>Lesterny Chemin n°i15 </desc>
<link href="https://chemins.be/lesterny/chemin/i15"/><trkseg>
<trkpt lat="50.103144" lon="5.281707"><time>2026-05-04T18:18:44Z</time></trkpt>
<trkpt lat="50.102940" lon="5.281244"><time>2026-05-04T18:28:44Z</time></trkpt>
</trkseg>
</trk>
<trk>
<name>xnslsi2</name>
<cmt>r</cmt>
<desc>Lesterny Chemin n°i2 Rue de Wavreille</desc>
<link href="https://chemins.be/lesterny/chemin/i2"/><trkseg>
<trkpt lat="50.111582" lon="5.273009"><time>2026-05-04T17:58:44Z</time></trkpt>
<trkpt lat="50.111633" lon="5.272297"><time>2026-05-04T18:08:44Z</time></trkpt>
<trkpt lat="50.111403" lon="5.270713"><time>2026-05-04T18:18:44Z</time></trkpt>
</trkseg>
</trk>
<trk>
<name>xnslsi3</name>
<cmt>v</cmt>
<desc>Lesterny Chemin n°i3 </desc>
<link href="https://chemins.be/lesterny/chemin/i3"/><trkseg>
<trkpt lat="50.100477" lon="5.304653"><time>2026-05-04T17:58:44Z</time></trkpt>
<trkpt lat="50.101000" lon="5.305898"><time>2026-05-04T18:08:44Z</time></trkpt>
<trkpt lat="50.102190" lon="5.306895"><time>2026-05-04T18:18:44Z</time></trkpt>
<trkpt lat="50.103828" lon="5.307131"><time>2026-05-04T18:28:44Z</time></trkpt>
<trkpt lat="50.104847" lon="5.308902"><time>2026-05-04T18:38:44Z</time></trkpt>
<trkpt lat="50.104902" lon="5.309352"><time>2026-05-04T18:48:44Z</time></trkpt>
</trkseg>
</trk>
<trk>
<name>xnslsi4</name>
<cmt>v</cmt>
<desc>Lesterny Chemin n°i4 </desc>
<link href="https://chemins.be/lesterny/chemin/i4"/><trkseg>
<trkpt lat="50.111801" lon="5.278382"><time>2026-05-04T17:58:44Z</time></trkpt>
<trkpt lat="50.111664" lon="5.278659"><time>2026-05-04T18:08:44Z</time></trkpt>
<trkpt lat="50.111598" lon="5.279077"><time>2026-05-04T18:18:44Z</time></trkpt>
<trkpt lat="50.111855" lon="5.279474"><time>2026-05-04T18:28:44Z</time></trkpt>
</trkseg>
</trk>
<trk>
<name>xnslsi5</name>
<cmt>v</cmt>
<desc>Lesterny Chemin n°i5 </desc>
<link href="https://chemins.be/lesterny/chemin/i5"/><trkseg>
<trkpt lat="50.111655" lon="5.278617"><time>2026-05-04T17:58:44Z</time></trkpt>
<trkpt lat="50.111458" lon="5.278516"><time>2026-05-04T18:08:44Z</time></trkpt>
<trkpt lat="50.111279" lon="5.278442"><time>2026-05-04T18:18:44Z</time></trkpt>
</trkseg>
</trk>
<trk>
<name>xnslsi6</name>
<cmt>v</cmt>
<desc>Lesterny Chemin n°i6 </desc>
<link href="https://chemins.be/lesterny/chemin/i6"/><trkseg>
<trkpt lat="50.111976" lon="5.279001"><time>2026-05-04T17:58:44Z</time></trkpt>
<trkpt lat="50.111678" lon="5.279107"><time>2026-05-04T18:08:44Z</time></trkpt>
</trkseg></trk>
<trk>
<name>xnslsi6</name>
<cmt>r</cmt>
<desc>Lesterny Chemin n°i6 </desc>
<link href="https://chemins.be/lesterny/chemin/i6"/><trkseg>
<trkpt lat="50.111678" lon="5.279107"><time>2026-05-04T18:08:44Z</time></trkpt>
<trkpt lat="50.111453" lon="5.279145"><time>2026-05-04T18:18:44Z</time></trkpt>
<trkpt lat="50.111362" lon="5.279283"><time>2026-05-04T18:28:44Z</time></trkpt>
</trkseg>
</trk>
<trk>
<name>xnslsi7</name>
<cmt>v</cmt>
<desc>Lesterny Chemin n°i7 Rue de la Sesette</desc>
<link href="https://chemins.be/lesterny/chemin/i7"/><trkseg>
<trkpt lat="50.111862" lon="5.279768"><time>2026-05-04T17:58:44Z</time></trkpt>
<trkpt lat="50.111557" lon="5.279706"><time>2026-05-04T18:08:44Z</time></trkpt>
<trkpt lat="50.111362" lon="5.279297"><time>2026-05-04T18:18:44Z</time></trkpt>
</trkseg>
</trk>
<trk>
<name>xnslsi8</name>
<cmt>v</cmt>
<desc>Lesterny Sentier n°i8 </desc>
<link href="https://chemins.be/lesterny/sentier/i8"/><trkseg>
<trkpt lat="50.111548" lon="5.279692"><time>2026-05-04T17:58:44Z</time></trkpt>
<trkpt lat="50.111375" lon="5.279898"><time>2026-05-04T18:08:44Z</time></trkpt>
</trkseg>
</trk>
<trk>
<name>xnslsi9</name>
<cmt>v</cmt>
<desc>Lesterny Chemin n°i9 </desc>
<link href="https://chemins.be/lesterny/chemin/i9"/><trkseg>
<trkpt lat="50.110473" lon="5.293369"><time>2026-05-04T17:58:44Z</time></trkpt>
<trkpt lat="50.110952" lon="5.293310"><time>2026-05-04T18:08:44Z</time></trkpt>
<trkpt lat="50.111423" lon="5.293101"><time>2026-05-04T18:18:44Z</time></trkpt>
<trkpt lat="50.111616" lon="5.292892"><time>2026-05-04T18:28:44Z</time></trkpt>
<trkpt lat="50.111873" lon="5.292569"><time>2026-05-04T18:38:44Z</time></trkpt>
<trkpt lat="50.113628" lon="5.291819"><time>2026-05-04T18:48:44Z</time></trkpt>
</trkseg>
</trk>
</gpx>